{"data":{"norad_id":64364,"epoch":"2026-05-25T03:13:33.553632Z","epoch_age_seconds":73875,"freshness":"FRESH","line1":"1 64364U 25126W   26145.13441613  .00001848  00000+0  16265-3 0  9993","line2":"2 64364  70.0006 201.6650 0003638 269.4710  90.6032 14.98334811 52130","mean_motion":14.98334811,"eccentricity":0.0003638,"inclination_deg":70.0006,"raan_deg":201.665,"arg_perigee_deg":269.471,"mean_anomaly_deg":90.6032,"bstar":0.00016265,"rev_number":5213,"period_min":96.106690535938,"perigee_km":569.51253860232,"apogee_km":574.56948812485,"semimajor_km":6950.1780133636,"source":"CELESTRAK","updated_at":"2026-05-25T13:38:20.406154Z"}}